Year,Month,Day,Hour,Minute,Value (Times are PST for temperature in C)
2018,05,19,15,15,13.60
2018,05,19,15,16,13.50
2018,05,19,15,17,13.50
2018,05,19,15,18,13.60
2018,05,19,15,19,13.60
2018,05,19,15,20,13.60
2018,05,19,15,21,13.60
2018,05,19,15,22,13.60
2018,05,19,15,23,13.60
2018,05,19,15,24,13.60
2018,05,19,15,25,13.60
2018,05,19,15,26,13.70
2018,05,19,15,27,13.70
2018,05,19,15,28,13.70
2018,05,19,15,29,13.80
2018,05,19,15,30,13.90
2018,05,19,15,31,13.90
2018,05,19,15,32,14.00
2018,05,19,15,33,14.00
2018,05,19,15,34,14.00
2018,05,19,15,35,14.10
2018,05,19,15,36,14.10
2018,05,19,15,37,14.20
2018,05,19,15,38,14.20
2018,05,19,15,39,14.20
2018,05,19,15,40,14.30
2018,05,19,15,41,14.30
2018,05,19,15,42,14.30
2018,05,19,15,43,14.30
2018,05,19,15,44,14.30
2018,05,19,15,45,14.30
2018,05,19,15,46,14.30
2018,05,19,15,47,14.40
2018,05,19,15,48,14.40
2018,05,19,15,49,14.40
2018,05,19,15,50,14.40
2018,05,19,15,51,14.40
2018,05,19,15,52,14.40
2018,05,19,15,53,14.40
2018,05,19,15,54,14.40
2018,05,19,15,55,14.40
2018,05,19,15,56,14.50
2018,05,19,15,57,14.50
2018,05,19,15,58,14.60
2018,05,19,15,59,14.70
2018,05,19,16,00,14.80
2018,05,19,16,01,14.80
2018,05,19,16,02,14.90
2018,05,19,16,03,14.90
2018,05,19,16,04,15.00
2018,05,19,16,05,15.10
2018,05,19,16,06,15.10
2018,05,19,16,07,15.10
2018,05,19,16,08,15.20
2018,05,19,16,09,15.20
2018,05,19,16,10,15.10
2018,05,19,16,11,15.10
2018,05,19,16,12,15.10
2018,05,19,16,13,15.00
2018,05,19,16,14,15.10
2018,05,19,16,15,15.00
2018,05,19,16,16,14.90
2018,05,19,16,17,14.90
2018,05,19,16,18,14.80
2018,05,19,16,19,14.80
2018,05,19,16,20,14.80
2018,05,19,16,21,14.90
2018,05,19,16,22,14.90
2018,05,19,16,23,15.00
2018,05,19,16,24,15.00
2018,05,19,16,25,14.90
2018,05,19,16,26,14.90
2018,05,19,16,27,14.90
2018,05,19,16,28,14.80
2018,05,19,16,29,14.70
2018,05,19,16,30,14.60
2018,05,19,16,31,14.60
2018,05,19,16,32,14.50
2018,05,19,16,33,14.50
2018,05,19,16,34,14.50
2018,05,19,16,35,14.40
2018,05,19,16,36,14.40
2018,05,19,16,37,14.30
2018,05,19,16,38,14.30
2018,05,19,16,39,14.30
2018,05,19,16,40,14.30
2018,05,19,16,41,14.40
2018,05,19,16,42,14.30
2018,05,19,16,43,14.30
2018,05,19,16,44,14.30
2018,05,19,16,45,14.30
2018,05,19,16,46,14.30
2018,05,19,16,47,14.30
2018,05,19,16,48,14.20
2018,05,19,16,49,14.20
2018,05,19,16,50,14.20
2018,05,19,16,51,14.20
2018,05,19,16,52,14.20
2018,05,19,16,53,14.10
2018,05,19,16,54,14.10
2018,05,19,16,55,14.00
2018,05,19,16,56,14.00
2018,05,19,16,57,14.00
2018,05,19,16,58,14.10
2018,05,19,16,59,14.20
2018,05,19,17,00,14.20
2018,05,19,17,01,14.30
2018,05,19,17,02,14.30
2018,05,19,17,03,14.30
2018,05,19,17,04,14.30
2018,05,19,17,05,14.20
2018,05,19,17,06,14.10
2018,05,19,17,07,14.10
2018,05,19,17,08,14.10
2018,05,19,17,09,14.00
2018,05,19,17,10,13.90
2018,05,19,17,11,13.90
2018,05,19,17,12,13.90
2018,05,19,17,13,13.90
2018,05,19,17,14,13.90
2018,05,19,17,15,13.90
2018,05,19,17,16,13.90
2018,05,19,17,17,13.90
2018,05,19,17,18,13.80
2018,05,19,17,19,13.80
2018,05,19,17,20,13.80
2018,05,19,17,21,13.80
2018,05,19,17,22,13.70
2018,05,19,17,23,13.70
2018,05,19,17,24,13.60
2018,05,19,17,25,13.60
2018,05,19,17,26,13.60
2018,05,19,17,27,13.60
2018,05,19,17,28,13.60
2018,05,19,17,29,13.60
2018,05,19,17,30,13.50
2018,05,19,17,31,13.50
2018,05,19,17,32,13.50
2018,05,19,17,33,13.50
2018,05,19,17,34,13.40
2018,05,19,17,35,13.40
2018,05,19,17,36,13.40
2018,05,19,17,37,13.40
2018,05,19,17,38,13.40
2018,05,19,17,39,13.40
2018,05,19,17,40,13.40
2018,05,19,17,41,13.40
2018,05,19,17,42,13.40
2018,05,19,17,43,13.30
2018,05,19,17,44,13.30
2018,05,19,17,45,13.30
2018,05,19,17,46,13.30
2018,05,19,17,47,13.30
2018,05,19,17,48,13.30
2018,05,19,17,49,13.30
2018,05,19,17,50,13.20
2018,05,19,17,51,13.30
2018,05,19,17,52,13.30
2018,05,19,17,53,13.30
2018,05,19,17,54,13.30
2018,05,19,17,55,13.30
2018,05,19,17,56,13.30
2018,05,19,17,57,13.30
2018,05,19,17,58,13.30
2018,05,19,17,59,13.40
2018,05,19,18,00,13.40
2018,05,19,18,01,13.40
2018,05,19,18,02,13.30
2018,05,19,18,03,13.30
2018,05,19,18,04,13.30
2018,05,19,18,05,13.30
2018,05,19,18,06,13.30
2018,05,19,18,07,13.30
2018,05,19,18,08,13.30
2018,05,19,18,09,13.30
2018,05,19,18,10,13.30
2018,05,19,18,11,13.30
2018,05,19,18,12,13.30
2018,05,19,18,13,13.30
2018,05,19,18,14,13.30
2018,05,19,18,15,13.30
2018,05,19,18,16,13.30
2018,05,19,18,17,13.30
2018,05,19,18,18,13.30
2018,05,19,18,19,13.30
2018,05,19,18,20,13.30
2018,05,19,18,21,13.30
2018,05,19,18,22,13.20
2018,05,19,18,23,13.20
2018,05,19,18,24,13.20
2018,05,19,18,25,13.20
2018,05,19,18,26,13.20
2018,05,19,18,27,13.20
2018,05,19,18,28,13.20
2018,05,19,18,29,13.20
2018,05,19,18,30,13.20
2018,05,19,18,31,13.20
2018,05,19,18,32,13.20
2018,05,19,18,33,13.10
2018,05,19,18,34,13.10
2018,05,19,18,35,13.10
2018,05,19,18,36,13.10
2018,05,19,18,37,13.10
2018,05,19,18,38,13.10
2018,05,19,18,39,13.10
2018,05,19,18,40,13.10
2018,05,19,18,41,13.10
2018,05,19,18,42,13.10
2018,05,19,18,43,13.10
2018,05,19,18,44,13.10
2018,05,19,18,45,13.10
2018,05,19,18,46,13.10
2018,05,19,18,47,13.10
2018,05,19,18,48,13.10
2018,05,19,18,49,13.10
2018,05,19,18,50,13.10
2018,05,19,18,51,13.10
2018,05,19,18,52,13.10
2018,05,19,18,53,13.10
2018,05,19,18,54,13.10
2018,05,19,18,55,13.10
2018,05,19,18,56,13.10
2018,05,19,18,57,13.00
2018,05,19,18,58,13.00
2018,05,19,18,59,13.00
2018,05,19,19,00,13.00
2018,05,19,19,01,13.00
2018,05,19,19,02,13.00
2018,05,19,19,03,12.90
2018,05,19,19,04,12.90
2018,05,19,19,05,12.90
2018,05,19,19,06,12.90
2018,05,19,19,07,12.90
2018,05,19,19,08,12.90
2018,05,19,19,09,12.90
2018,05,19,19,10,13.00
2018,05,19,19,11,13.00
2018,05,19,19,12,13.00
2018,05,19,19,13,13.00
2018,05,19,19,14,12.90
2018,05,19,19,15,12.90
2018,05,19,19,16,12.90
2018,05,19,19,17,12.90
2018,05,19,19,18,12.90
2018,05,19,19,19,12.80
2018,05,19,19,20,12.80
2018,05,19,19,21,12.80
2018,05,19,19,22,12.80
2018,05,19,19,23,12.80
2018,05,19,19,24,12.80
2018,05,19,19,25,12.80
2018,05,19,19,26,12.80
2018,05,19,19,27,12.80
2018,05,19,19,28,12.80
2018,05,19,19,29,12.80
2018,05,19,19,30,12.80
2018,05,19,19,31,12.80
2018,05,19,19,32,12.80
2018,05,19,19,33,12.80
2018,05,19,19,34,12.70
2018,05,19,19,35,12.70
2018,05,19,19,36,12.70
2018,05,19,19,37,12.70
2018,05,19,19,38,12.70
2018,05,19,19,39,12.70
2018,05,19,19,40,12.70
2018,05,19,19,41,12.70
2018,05,19,19,42,12.70
2018,05,19,19,43,12.70
2018,05,19,19,44,12.70
2018,05,19,19,45,12.70
2018,05,19,19,46,12.70
2018,05,19,19,47,12.70
2018,05,19,19,48,12.70
2018,05,19,19,49,12.70
2018,05,19,19,50,12.60
2018,05,19,19,51,12.60
2018,05,19,19,52,12.60
2018,05,19,19,53,12.60
2018,05,19,19,54,12.60
2018,05,19,19,55,12.60
2018,05,19,19,56,12.60
2018,05,19,19,57,12.60
2018,05,19,19,58,12.60
2018,05,19,19,59,12.60
2018,05,19,20,00,12.60
2018,05,19,20,01,12.60
2018,05,19,20,02,12.60
2018,05,19,20,03,12.60
2018,05,19,20,04,12.60
2018,05,19,20,05,12.60
2018,05,19,20,06,12.60
2018,05,19,20,07,12.60
2018,05,19,20,08,12.60
2018,05,19,20,09,12.50
2018,05,19,20,10,12.50
2018,05,19,20,11,12.50
2018,05,19,20,12,12.50
2018,05,19,20,13,12.50
2018,05,19,20,14,12.50
2018,05,19,20,15,12.50
2018,05,19,20,16,12.50
2018,05,19,20,17,12.50
2018,05,19,20,18,12.50
2018,05,19,20,19,12.50
2018,05,19,20,20,12.50
2018,05,19,20,21,12.50
